Showing default

TECHEDSAT-11, 60208

Orbit data source: Space-Track

TECHEDSAT-11, 60208 is an American payload satellite in SSO that was launched on Thu, 04 Jul 2024 UTC via an FIREFLY ALPHA launch vehicle from the Air Force Western Test Range (AFWTR). Payload-class satellites include a variety of spacecraft equipped with specific instruments for various scientific and technological missions. These include communications satellites like Starlink; space stations such as the ISS; scientific satellites like the Hubble; Earth observation satellites from companies like Planet Labs, Umbra, and HawkEye 360; GPS; miniature CubeSats for education and research; and military/defense satellites.

Loading next visibility...
Identifier
60208, 2024-125F
Orbit
SSO
Last TLE update
13 hours ago
Origin
Manufacturer
ARC
Mission
Operational spacecraft
Bus & Motor
CUBESAT 6UXL, Unknown motor
Mass
10 kg wet, ~10 kg dry
Launch date (UTC)
2024-07-04 (1 year ago)
Launch vehicle
FIREFLY ALPHA
Launch site
Air Force Western Test Range (AFWTR)
Object type
Payload
Rocket body
Debris
Shape & HBR
Unknown
Radar Cross Section
Small (<0.1 m²)

Expand to show TLE details & history

TLE from 13 hours ago
0 TECHEDSAT-11
1 60208U 24125F   25181.55241692  .00008774  00000-0  27476-3 0  9996
2 60208  97.2791  32.2085 0022246  61.3880 298.9596 15.33088202 55139
Epoch: 2025-06-30T13:15Z
TLE epoch observation values (Epoch: 2025-06-30T13:15:28.821Z)
Latitude
-0.00013°
Longitude
-85.52215°
Altitude
462.368 km
Speed
7.639 km/s
True Right ascension
02h 08m 50s
True Declination
0° 00' 00"
Sunlit
Object was in daylight at epoch
Visualization orbit readout
Latitude
3.12465°
Longitude
-85.40492°
Altitude
460.856 km
Speed
7.641 km/s
Apparent Right ascension
01h 50m 54s
Apparent Declination
-17° 35' 10"
Sunlit
Object is in daylight
Visualization observer readout
Local Sidereal Time
13:25:14
Azimuth
344.182° N
Elevation
-66.989°
Doppler factor
1
Orbital elements
Apogee altitude
478.768 km
Perigee altitude
448.328 km
Semi-major axis
6,841.685 km
Eccentricity
0.00222
Inclination
97.2791°
RAAN
32.2085°
Arg. of periapsis
61.388°
True anomaly
Unknown
Mean anomaly
298.9596°
Eccentric anomaly
Unknown
Mean motion
3.83529 °/min
Orbital period
93.87 mins
BSTAR
0.00027476
Loading maneuver chart data...
Loading SW <> Apogee altitude chart data...
Loading historical data...
Loading historical data...
Loading historical data...
Loading historical data...
Loading historical data...
Loading historical data...
Loading historical data...

TECHEDSAT-11 Visibility forecast

Observer location: undefined°, undefined°

Span
Click to sort rows by Start time (UTC) header in descending order
Start Az.
Max El. time (UTC)
Max El. Az.
Max El.
End time (UTC)
End Az.
5 mins2025-07-01 02:21:12.243Z37.431° NE2025-07-01 02:24:12.243Z104.04° ESE25.239°2025-07-01 02:26:12.243Z149.954° SSE
4 mins2025-07-01 14:28:12.243Z206.739° SW2025-07-01 14:29:12.243Z241.063° WSW33.744°2025-07-01 14:32:12.243Z331.01° NNW
|